OPS 4682 DEB, 38365

Orbit data source: Space-Track

OPS 4682 DEB, 38365 is space debris in LEO originally from a launch on Sat, 03 Apr 1965 UTC launched from the Air Force Western Test Range (AFWTR). Debris objects in space refer to the collection of defunct objects orbiting the Earth. Examples of debris include non-operational satellites, rocket bodies, and fragments generated from explosions, collisions, or faulty payload assembly.

Loading next visibility...
Identifier
38365, 1965-027BS
Orbit
LEO
Country
Flag of USUS
Related business
Manufacturer
Unknown
Mission
Spacecraft
Bus & Motor
Unknown
Mass
Unknown
Launch date (UTC)
1965-04-03 (61 years ago)
Launch vehicle
Unknown
Launch site
Air Force Western Test Range (AFWTR)
Object type
Payload
Rocket body
Debris
Shape & HBR
Unknown shape, 0.1 m
Radar Cross Section
Small (<0.1 m²)

Expand to show TLE details & history
Last TLE update: 5 days ago

TLE from 5 days ago
0 OPS 4682 DEB
1 38365U 65027BS  26102.95288029  .00000177  00000-0  56759-3 0  9999
2 38365  90.2416 354.6104 0024131 150.0362 210.2146 12.99204637623842
Epoch: 2026-04-12T22:52Z
TLE epoch observation values (Epoch: 2026-04-12T22:52:08.857Z)
Latitude
-0.00004°
Longitude
170.42305°
Altitude
1,284.04 km
Speed
7.206 km/s
True Right ascension
23h 38m 26s
True Declination
0° 00' 00"
Sunlit
Object was in daylight at epoch
Visualization orbit readout
Latitude
Unknown
Longitude
Unknown
Altitude
Unknown
Speed
Unknown
Apparent Right ascension
Unknown
Apparent Declination
Unknown
Sunlit
N/A
Visualization observer readout
Local Sidereal Time
01:48:33
Azimuth
Unknown
Elevation
Unknown
Doppler factor
Unknown
Orbital elements
Apogee altitude
1,280.77 km
Perigee altitude
1,243.895 km
Semi-major axis
7,640.47 km
Eccentricity
0.00241
Inclination
90.2416°
RAAN
354.6104°
Arg. of periapsis
150.0362°
True anomaly
210.07581°
Mean anomaly
210.2146°
Eccentric anomaly
210.14517°
Mean motion
3.24985 °/min
Orbital period
110.77 mins
BSTAR
0.00056759
Loading maneuver chart data...
Computing Atmospheric mass density...
Loading historical data...
Loading historical data...
Loading historical data...
Loading historical data...
Loading historical data...
Loading historical data...
Loading historical data...

Documentation

Showing up to 5 results
|